Regional Weather Roundup
Issued by NWS Goodland, KS

Home | Current Version | Previous Version | Text Only | Print | Product List | Glossary Off
Versions: 1 2 3 4 5 6 7 8 9 10 11 12 13 14 15 16 17 18 19 20 21 22 23 24 25 26 27 28 29 30 31 32 33 34 35 36 37 38 39 40 41 42 43 44 45 46 47 48 49 50

000
ASUS43 KGLD 280808
RWRGLD

GOODLAND FORECAST AREA HOURLY WEATHER ROUNDUP
NATIONAL WEATHER SERVICE GOODLAND KS
100 AM MST FRI NOV 28 2014

...OFFICIAL OBSERVATIONS...

CITY           SKY/WX    TMP DP  RH WIND       PRES   REMARKS
GOODLAND KS    CLEAR     36  24  62 W7        30.01F
HILL CITY KS   CLEAR     38  27  64 W8        29.96F
IMPERIAL NEB   CLEAR     38  26  62 W10       29.96F
MCCOOK NEB     NOT AVBL
AKRON CO       PTCLDY    43  24  47 SW14      30.00F
BURLINGTON CO  CLEAR     35  20  54 W7        30.03F
LIMON CO       CLEAR     34  18  52 N3        30.07F
$$

...UNOFFICIAL OBSERVATIONS...

CITY           SKY/WX    TMP DP  RH WIND       PRES   REMARKS
COLBY KS       CLEAR     36  28  75 W7        30.00S
GOVE KS          N/A     34  32  92 MISG        N/A
NORTON KS      CLEAR     30  21  69 SW9       29.94F
SHARON SPRINGS   N/A     36  24  63 W8          N/A
TRIBUNE KS     CLEAR     34  27  75 W8        30.04F
TRENTON NEB      N/A     38  32  79 W7          N/A
$$


USA.gov is the U.S. government's official web portal to all federal, state and local government web resources and services.